Moorhead, MN

10:16 AM CDT on August 18, 2017 (GMT -0500)
Moorhead Municipal

Weather History for KJKJ - May, 2013

Change the Weather History Date:

Saturday, May 11, 2013

  Actual Average (KFAR) Record (KFAR)
Temperature  
Mean Temperature 43 °F -  
Max Temperature 51 °F 63 °F 93 °F (1906)
Min Temperature 35 °F 43 °F 19 °F (1946)
Degree Days  
Heating Degree Days 22    
Moisture  
Dew Point 14 °F    
Average Humidity 38    
Maximum Humidity 87    
Minimum Humidity 7    
Precipitation  
Precipitation 0.00 in - - ()
Sea Level Pressure  
Sea Level Pressure 30.24 in    
Wind  
Wind Speed 19 mph (North)    
Max Wind Speed 32 mph    
Max Gust Speed 40 mph    
Visibility 10 miles    
Events      
Averages and records for this station are not official NWS values.
T = Trace of Precipitation, MM = Missing Value Source: NWS Daily Summary

Daily Weather History Graph

Daily Weather History Graph

Search for Another Location

Airport or City:

Trip Planner

Search our weather history database for the weather conditions in past years. The results will help you decide how hot, cold, wet, or windy it might be!

Date:

Astronomy

May. 11, 2013 Rise Set
Actual Time 5:56 AM CDT 8:50 PM CDT
Civil Twilight 5:21 AM CDT 9:25 PM CDT
Nautical Twilight 4:36 AM CDT 10:11 PM CDT
Astronomical Twilight 3:42 AM CDT 11:05 PM CDT
Moon 7:03 AM CDT (5/11) 10:33 PM CDT (5/11)
Length of Visible Light 16h 04m
Length of Day
14h 53m
Waxing Crescent, 3% of the Moon is Illuminated
May 11
Waxing Crescent
May 17
First Quarter
May 24
Full
May 31
Last Quarter
Jun 8
New

Hourly Weather History & Observations

Time (CDT) Temp. Windchill Dew Point Humidity Pressure Visibility Wind Dir Wind Speed Gust Speed Precip Events Conditions
12:14 AM 42.8 °F 37.0 °F 24.8 °F 49% 30.13 in 10.0 mi NNW 10.4 mph - N/A   Scattered Clouds
12:35 AM 42.8 °F 36.6 °F 21.2 °F 42% 30.14 in 10.0 mi NNW 11.5 mph - N/A   Scattered Clouds
12:55 AM 41.0 °F 33.9 °F 21.2 °F 45% 30.14 in 10.0 mi NNW 12.7 mph - N/A   Clear
1:14 AM 41.0 °F 32.8 °F 21.2 °F 45% 30.15 in 10.0 mi NNW 16.1 mph - N/A   Clear
1:35 AM 41.0 °F 33.5 °F 23.0 °F 49% 30.16 in 10.0 mi NNW 13.8 mph - N/A   Clear
1:55 AM 41.0 °F 32.8 °F 24.8 °F 53% 30.16 in 10.0 mi NNW 16.1 mph - N/A   Mostly Cloudy
2:14 AM 42.8 °F 34.3 °F 24.8 °F 49% 30.17 in 10.0 mi North 19.6 mph - N/A   Overcast
2:35 AM 42.8 °F 33.5 °F 26.6 °F 53% 30.17 in 10.0 mi North 23.0 mph 27.6 mph N/A   Scattered Clouds
2:55 AM 41.0 °F 33.5 °F 30.2 °F 65% 30.17 in 10.0 mi North 13.8 mph - N/A   Scattered Clouds
3:14 AM 39.2 °F 32.0 °F 30.2 °F 70% 30.18 in 10.0 mi NNW 11.5 mph - N/A   Scattered Clouds
3:35 AM 39.2 °F 31.2 °F 30.2 °F 70% 30.18 in 10.0 mi NNW 13.8 mph - N/A   Scattered Clouds
3:55 AM 39.2 °F 30.5 °F 30.2 °F 70% 30.18 in 10.0 mi NNW 16.1 mph - N/A   Scattered Clouds
4:14 AM 39.2 °F 29.8 °F 32.0 °F 75% 30.19 in 10.0 mi NNW 18.4 mph - N/A   Scattered Clouds
4:35 AM 39.2 °F 29.3 °F 33.8 °F 81% 30.21 in 10.0 mi NNW 20.7 mph 26.5 mph N/A   Clear
4:55 AM 37.4 °F 27.5 °F 33.8 °F 87% 30.21 in 10.0 mi NNW 18.4 mph - N/A   Clear
5:14 AM 37.4 °F 26.9 °F 32.0 °F 81% 30.22 in 10.0 mi NNW 20.7 mph 26.5 mph N/A   Clear
5:35 AM 37.4 °F 27.8 °F 32.0 °F 81% 30.22 in 10.0 mi NNW 17.3 mph - N/A   Clear
5:54 AM 37.4 °F 28.2 °F 30.2 °F 75% 30.23 in 10.0 mi NNW 16.1 mph - N/A   Clear
6:15 AM 35.6 °F 25.2 °F 30.2 °F 81% 30.23 in 10.0 mi NNW 18.4 mph - N/A   Clear
6:35 AM 37.4 °F 26.9 °F 30.2 °F 75% 30.24 in 10.0 mi NNW 20.7 mph 24.2 mph N/A   Clear
6:54 AM 37.4 °F 27.2 °F 30.2 °F 75% 30.25 in 10.0 mi NNW 19.6 mph - N/A   Clear
7:15 AM 37.4 °F 26.6 °F 30.2 °F 75% 30.26 in 10.0 mi North 21.9 mph 29.9 mph N/A   Clear
7:34 AM 39.2 °F 28.5 °F 30.2 °F 70% 30.26 in 10.0 mi North 24.2 mph 32.2 mph N/A   Clear
7:55 AM 39.2 °F 27.8 °F 28.4 °F 65% 30.27 in 10.0 mi North 27.6 mph 31.1 mph N/A   Clear
8:15 AM 39.2 °F 27.6 °F 28.4 °F 65% 30.27 in 10.0 mi North 28.8 mph 36.8 mph N/A   Clear
8:34 AM 41.0 °F 30.7 °F 26.6 °F 57% 30.28 in 10.0 mi North 25.3 mph 33.4 mph N/A   Scattered Clouds
8:55 AM 41.0 °F 29.8 °F 24.8 °F 53% 30.28 in 10.0 mi North 29.9 mph 38.0 mph N/A   Scattered Clouds
9:15 AM 41.0 °F 29.7 °F 21.2 °F 45% 30.29 in 10.0 mi North 31.1 mph 38.0 mph N/A   Mostly Cloudy
9:34 AM 39.2 °F 27.8 °F 23.0 °F 52% 30.29 in 10.0 mi North 27.6 mph 35.7 mph N/A   Mostly Cloudy
9:55 AM 41.0 °F 29.7 °F 21.2 °F 45% 30.29 in 10.0 mi North 31.1 mph - N/A   Scattered Clouds
10:15 AM 42.8 °F 32.5 °F 19.4 °F 39% 30.29 in 10.0 mi North 28.8 mph 35.7 mph N/A   Clear
10:34 AM 44.6 °F 35.3 °F 21.2 °F 39% 30.29 in 10.0 mi NNW 26.5 mph 34.5 mph N/A   Scattered Clouds
10:55 AM 44.6 °F 34.7 °F 21.2 °F 39% 30.29 in 10.0 mi North 29.9 mph 36.8 mph N/A   Mostly Cloudy
11:15 AM 44.6 °F 35.9 °F 19.4 °F 37% 30.29 in 10.0 mi NNW 23.0 mph 31.1 mph N/A   Scattered Clouds
11:34 AM 46.4 °F 37.0 °F 17.6 °F 32% 30.29 in 10.0 mi NNW 31.1 mph 36.8 mph N/A   Scattered Clouds
11:55 AM 46.4 °F 37.5 °F 17.6 °F 32% 30.29 in 10.0 mi North 27.6 mph 40.3 mph N/A   Scattered Clouds
12:14 PM 46.4 °F 36.9 °F 17.6 °F 32% 30.29 in 10.0 mi North 32.2 mph 38.0 mph N/A   Scattered Clouds
12:35 PM 48.2 °F - 12.2 °F 24% 30.29 in 10.0 mi NNW 28.8 mph 36.8 mph N/A   Clear
12:55 PM 48.2 °F - 10.4 °F 22% 30.28 in 10.0 mi North 28.8 mph 38.0 mph N/A   Clear
1:14 PM 48.2 °F - 10.4 °F 22% 30.28 in 10.0 mi North 29.9 mph 36.8 mph N/A   Scattered Clouds
1:35 PM 50.0 °F - 10.4 °F 20% 30.27 in 10.0 mi NNW 31.1 mph 36.8 mph N/A   Scattered Clouds
1:55 PM 50.0 °F - 10.4 °F 20% 30.27 in 10.0 mi NNW 26.5 mph 35.7 mph N/A   Clear
2:14 PM 51.8 °F - 8.6 °F 18% 30.27 in 10.0 mi North 24.2 mph 35.7 mph N/A   Clear
2:35 PM 51.8 °F - 8.6 °F 18% 30.27 in 10.0 mi NNW 27.6 mph 34.5 mph N/A   Scattered Clouds
2:55 PM 51.8 °F - 1.4 °F 13% 30.27 in 10.0 mi North 29.9 mph 38.0 mph N/A   Clear
3:14 PM 51.8 °F - 3.2 °F 14% 30.26 in 10.0 mi North 23.0 mph 33.4 mph N/A   Scattered Clouds
3:35 PM 51.8 °F - 3.2 °F 14% 30.26 in 10.0 mi North 27.6 mph 33.4 mph N/A   Scattered Clouds
3:55 PM 51.8 °F - 3.2 °F 14% 30.26 in 10.0 mi North 29.9 mph 34.5 mph N/A   Clear
4:15 PM 51.8 °F - 1.4 °F 13% 30.25 in 10.0 mi NNW 27.6 mph 31.1 mph N/A   Clear
4:35 PM 51.8 °F - 1.4 °F 13% 30.26 in 10.0 mi North 21.9 mph - N/A   Clear
4:54 PM 51.8 °F - -2.2 °F 11% 30.25 in 10.0 mi North 27.6 mph 33.4 mph N/A   Clear
5:15 PM 51.8 °F - -2.2 °F 11% 30.25 in 10.0 mi North 28.8 mph 34.5 mph N/A   Clear
5:35 PM 51.8 °F - -5.8 °F 9% 30.25 in 10.0 mi North 25.3 mph 34.5 mph N/A   Clear
5:54 PM 51.8 °F - -5.8 °F 9% 30.25 in 10.0 mi North 24.2 mph 34.5 mph N/A   Clear
6:15 PM 51.8 °F - -7.6 °F 8% 30.25 in 10.0 mi North 26.5 mph 32.2 mph N/A   Clear
6:35 PM 51.8 °F - -7.6 °F 8% 30.24 in 10.0 mi NNW 25.3 mph 28.8 mph N/A   Clear
6:55 PM 51.8 °F - -11.2 °F 7% 30.25 in 10.0 mi North 25.3 mph 31.1 mph N/A   Clear
7:15 PM 51.8 °F - -9.4 °F 8% 30.25 in 10.0 mi North 19.6 mph 25.3 mph N/A   Clear
7:34 PM 50.0 °F - -7.6 °F 9% 30.24 in 10.0 mi North 19.6 mph 25.3 mph N/A   Clear
7:55 PM 48.2 °F - -4.0 °F 11% 30.24 in 10.0 mi North 20.7 mph 25.3 mph N/A   Clear
8:15 PM 48.2 °F - -0.4 °F 13% 30.24 in 10.0 mi North 18.4 mph 21.9 mph N/A   Clear
8:34 PM 46.4 °F 40.4 °F -0.4 °F 14% 30.24 in 10.0 mi North 13.8 mph 19.6 mph N/A   Clear
8:55 PM 46.4 °F 41.1 °F -2.2 °F 13% 30.24 in 10.0 mi North 11.5 mph - N/A   Clear
9:15 PM 44.6 °F 39.7 °F 1.4 °F 17% 30.24 in 10.0 mi NNE 9.2 mph - N/A   Clear
9:34 PM 42.8 °F 37.0 °F 1.4 °F 18% 30.25 in 10.0 mi North 10.4 mph - N/A   Clear
9:55 PM 42.8 °F 37.5 °F 3.2 °F 19% 30.25 in 10.0 mi NNE 9.2 mph - N/A   Clear
10:15 PM 41.0 °F 35.8 °F 5.0 °F 23% 30.25 in 10.0 mi North 8.1 mph - N/A   Clear
10:34 PM 39.2 °F 34.2 °F 5.0 °F 24% 30.25 in 10.0 mi North 6.9 mph - N/A   Clear
10:55 PM 37.4 °F 32.8 °F 6.8 °F 28% 30.26 in 10.0 mi North 5.8 mph - N/A   Clear
11:14 PM 37.4 °F 32.1 °F 6.8 °F 28% 30.26 in 10.0 mi North 6.9 mph - N/A   Clear
11:35 PM 35.6 °F 29.9 °F 6.8 °F 30% 30.26 in 10.0 mi North 6.9 mph - N/A   Clear
11:55 PM 35.6 °F 29.9 °F 8.6 °F 33% 30.26 in 10.0 mi North 6.9 mph - N/A   Clear